Regional Weather Roundup
Issued by NWS

Home | Current Version | Previous Version | Text Only | Print | Product List | Glossary Off
Versions: 1 2 3 4 5 6 7 8 9 10 11 12 13 14 15 16 17 18 19 20 21 22 23 24 25 26 27 28 29 30 31 32 33 34 35 36 37 38 39 40 41 42 43 44 45 46 47 48 49 50

000
ASUS45 KABQ 310601
RWRNM
NEW MEXICO REGIONAL WEATHER ROUNDUP
NATIONAL WEATHER SERVICE ALBUQUERQUE NM
1200 AM MDT TUE MAY 31 2016

NOTE: "FAIR" MEANS FEW OR NO CLOUDS BELOW 12,000 FEET AGL WITH NO
       SIGNIFICANT WEATHER OR OBSTRUCTIONS TO VISION.

      THIS PRODUCT IS RELEASED AS TWO VERSIONS.  ONE VERSION NEAR
      THE TOP OF THE HOUR CONTAINING PRELIMINARY DATA FROM ALBUQUERQUE
      AND OTHER STATIONS.  A FINAL VERSION WITH ADDITIONAL DATA IS
      ISSUED ABOUT 10 MINUTES AFTER THE HOUR.

NMZ501-503-504-510>518-310700-
NORTHWEST PLATEAU/NORTHCENTRAL MOUNTAINS

CITY           SKY/WX    TMP DP  RH WIND       PRES   REMARKS
FARMINGTON     FAIR      59  20  22 N6        30.00S
6HR MIN TEMP:  58; 6HR MAX TEMP:  81;

SANTA FE       FAIR      63  27  25 S3        30.04F
6HR MIN TEMP:  61; 6HR MAX TEMP:  80;

TAOS           FAIR      55  25  30 N12       30.11S

$$
NMZ402-403-502-505>509-310700-
WESTCENTRAL MOUNTAINS/SOUTHWEST MOUNTAINS

CITY           SKY/WX    TMP DP  RH WIND       PRES   REMARKS
GALLUP         FAIR      49  24  37 CALM      30.08F
6HR MIN TEMP:  49; 6HR MAX TEMP:  77;

GRANTS         FAIR      53  25  33 CALM      30.10S
SILVER CITY      N/A     59  43  55 N5        30.06F

$$
NMZ407-409-411-412-310700-
SOUTHERN DESERTS

CITY           SKY/WX    TMP DP  RH WIND       PRES   REMARKS
LORDSBURG      FAIR      64  46  52 CALM      29.96F
DEMING         RAIN      66  50  56 NW7G23    30.01R
6HR MIN TEMP:  64; 6HR MAX TEMP:  82; 6HR PCP:  0.04;

HOLLOMAN AFB   FAIR      69  48  48 S17       29.98F
ALAMOGORDO     FAIR      70  45  40 S17G26    30.00F
T OR C         FAIR      65  49  56 SE6       29.97S
6HR MIN TEMP:  64; 6HR MAX TEMP:  79; 6HR PCP:  0.08;


$$
NMZ519>523-310700-
CENTRAL VALLEYS/CENTRAL HIGHLANDS

CITY           SKY/WX    TMP DP  RH WIND       PRES   REMARKS
ALBUQUERQUE    CLOUDY    68  32  26 E6        29.99F
6HR MIN TEMP:  67; 6HR MAX TEMP:  80;

DOUBLE EAGLE   FAIR      61  32  33 CALM      30.02F
CLINES CORNERS FAIR      55  37  50 SW13      30.08F
6HR MIN TEMP:  55; 6HR MAX TEMP:  75;

BELEN          FAIR      70  32  24 SE10      29.99F
6HR MIN TEMP:  69; 6HR MAX TEMP:  79;

SOCORRO        NOT AVBL

$$
NMZ524>526-539-540-310700-
SOUTHCENTRAL MOUNTAINS

CITY           SKY/WX    TMP DP  RH WIND       PRES   REMARKS
RUIDOSO        NOT AVBL

$$
NMZ527>531-310700-
NORTHEAST HIGHLANDS/NORTHEAST PLAINS

CITY           SKY/WX    TMP DP  RH WIND       PRES   REMARKS
LAS VEGAS      FAIR      54  33  45 S14       30.06F
6HR MIN TEMP:  54; 6HR MAX TEMP:  77;

RATON          FAIR      58  35  42 N7        30.04F
6HR MIN TEMP:  55; 6HR MAX TEMP:  75;

CLAYTON        FAIR      59  50  72 SW6       29.95F
6HR MIN TEMP:  58; 6HR MAX TEMP:  77;


$$
NMZ532>537-310700-
EASTCENTRAL PLAINS

CITY           SKY/WX    TMP DP  RH WIND       PRES   REMARKS
TUCUMCARI      FAIR      62  43  49 S8        29.90F
6HR MIN TEMP:  62; 6HR MAX TEMP:  88; 6HR PCP: TRACE;

CANNON AFB     CLOUDY    65  49  56 S22G32    30.01R
6HR MIN TEMP:  64; 6HR MAX TEMP:  85; 6HR PCP: TRACE;

CLOVIS AIRPORT FAIR      64  52  63 SE22G32   30.02R

$$
NMZ028-029-538-310700-
SOUTHEAST PLAINS

CITY           SKY/WX    TMP DP  RH WIND       PRES   REMARKS
ROSWELL        FAIR      62  50  64 W15       29.94F
6HR MIN TEMP:  59; 6HR MAX TEMP:  80; 6HR PCP: TRACE;

ARTESIA        FAIR      63  59  88 SW15      29.96F
CARLSBAD       FAIR      60  58  92 E5        29.96S
6HR MIN TEMP:  60; 6HR MAX TEMP:  76; 6HR PCP:  0.01;

HOBBS          FAIR      61  59  94 SE12      30.04R


$$




USA.gov is the U.S. government's official web portal to all federal, state and local government web resources and services.